GW4530 Weather Reports


time (UTC)temp
C
wind
direction
speed
KPH
gust
KPH
rain 1hr
cm
rain 24hr
cm
rain mn
cm
humidity
%
barometer
mb
20260508194528 19 173 4.8 9.7 0.00 0.03 0.03 40 1016.4
20260508193025 18 293 3.2 12.9 0.00 0.03 0.03 39 1016.5
20260508191517 18 351 8.0 12.9 0.00 0.03 0.03 40 1016.8
20260508190023 18 261 4.8 12.9 0.00 0.03 0.03 41 1017.2
20260508184524 18 319 4.8 11.3 0.00 0.03 0.03 38 1017.3
20260508183026 17 269 6.4 19.3 0.00 0.03 0.03 40 1017.3
20260508181516 17 156 1.6 4.8 0.00 0.03 0.03 47 1017.5
20260508180020 17 317 6.4 9.7 0.00 0.03 0.03 46 1017.5
20260508174505 17 83 4.8 9.7 0.00 0.03 0.03 43 1017.8
20260508173008 16 192 1.6 8.0 0.00 0.03 0.03 45 1018.3
20260508171513 16 192 3.2 8.0 0.00 0.03 0.03 43 1018.6
20260508170020 16 325 4.8 8.0 0.00 0.03 0.03 52 1018.8
20260508164522 15 28 4.8 16.1 0.00 0.03 0.03 54 1019.1
20260508163013 15 338 3.2 8.0 0.00 0.03 0.03 55 1019.4
20260508161521 15 338 4.8 6.4 0.00 0.03 0.03 55 1019.7
20260508160017 14 109 3.2 11.3 0.00 0.03 0.03 60 1019.9
20260508154525 14 212 3.2 8.0 0.00 0.03 0.03 55 1020.1
20260508153016 13 128 4.8 9.7 0.00 0.03 0.03 61 1020.1
20260508151511 12 17 3.2 6.4 0.00 0.03 0.03 62 1020.2
20260508150013 12 328 1.6 6.4 0.00 0.03 0.03 66 1020.4
20260508144519 11 290 3.2 6.4 0.00 0.03 0.03 75 1020.4
20260508143032 11 342 3.2 4.8 0.00 0.03 0.03 78 1020.3
20260508141509 10 242 1.6 4.8 0.00 0.03 0.03 87 1020.4
20260508140014 8 307 1.6 4.8 0.00 0.03 0.03 89 1020.3
20260508134519 8 161 1.6 8.0 0.00 0.03 0.03 91 1020.3
20260508133028 7 196 4.8 6.4 0.00 0.03 0.03 93 1020.2
20260508131525 7 152 0.0 3.2 0.00 0.03 0.03 94 1020.3
20260508130011 7 148 1.6 3.2 0.00 0.03 0.03 94 1020.2
20260508124533 6 104 1.6 4.8 0.00 0.05 0.03 94 1020.1
20260508123023 6 144 0.0 3.2 0.00 0.05 0.03 94 1020.0
20260508121530 6 173 0.0 3.2 0.03 0.05 0.03 94 1019.9
20260508120028 5 180 1.6 3.2 0.03 0.05 0.03 94 1019.7
20260508114517 5 9 0.0 3.2 0.03 0.05 0.03 94 1019.5
20260508113020 4 322 1.6 3.2 0.03 0.05 0.03 93 1019.3
20260508111525 3 259 1.6 4.8 0.00 0.03 0.00 93 1019.2
20260508110032 3 82 0.0 0.0 0.00 0.03 0.00 91 1018.7
20260508104527 4 82 0.0 0.0 0.00 0.03 0.00 92 1018.3
20260508103035 4 82 0.0 0.0 0.00 0.03 0.00 92 1018.3
20260508101522 4 82 0.0 0.0 0.00 0.03 0.00 92 1018.2
20260508100028 4 82 0.0 0.0 0.00 0.03 0.00 92 1018.0
20260508094526 5 99 0.0 0.0 0.00 0.03 0.00 92 1018.0
20260508093036 5 99 0.0 0.0 0.00 0.03 0.00 92 1018.1
20260508091523 5 99 0.0 3.2 0.00 0.03 0.00 92 1018.1
20260508090005 5 99 0.0 3.2 0.00 0.03 0.00 92 1018.0
20260508084504 5 99 0.0 1.6 0.00 0.03 0.00 92 1017.9
20260508083008 5 99 0.0 0.0 0.00 0.03 0.00 91 1017.8
20260508081519 5 99 0.0 3.2 0.00 0.05 0.00 92 1017.9
20260508080020 5 99 0.0 3.2 0.00 0.08 0.00 92 1017.9
20260508074504 5 99 0.0 3.2 0.00 0.10 0.00 92 1017.9
20260508073009 5 99 0.0 0.0 0.00 0.10 0.00 91 1017.9
20260508071515 5 99 0.0 0.0 0.00 0.13 0.00 91 1017.8
20260508070019 5 99 0.0 0.0 0.00 0.13 0.00 91 1017.9
20260508064528 6 99 0.0 0.0 0.00 0.13 0.00 91 1017.9
20260508063009 6 99 0.0 3.2 0.00 0.13 0.00 91 1017.7
20260508061514 6 99 0.0 0.0 0.00 0.13 0.00 91 1017.9
20260508060025 7 99 0.0 0.0 0.00 0.18 0.00 91 1017.9
20260508054557 7 99 0.0 3.2 0.00 0.18 0.00 91 1018.0
20260508053038 7 99 0.0 3.2 0.00 0.18 0.00 91 1018.0
20260508051510 7 130 0.0 3.2 0.00 0.18 0.00 91 1018.0
20260508050014 7 190 0.0 3.2 0.00 0.18 0.00 91 1018.0
20260508044520 8 190 0.0 3.2 0.00 0.18 0.00 91 1017.8
20260508043033 8 190 0.0 3.2 0.00 0.18 0.00 91 1017.7
20260508041528 8 190 0.0 0.0 0.00 0.18 0.00 91 1017.6
20260508040013 8 190 0.0 0.0 0.00 0.18 0.00 91 1017.6
20260508034519 8 190 0.0 0.0 0.00 0.18 0.18 91 1017.5
20260508033029 8 190 0.0 1.6 0.00 0.18 0.18 91 1017.6
20260508031524 8 190 0.0 3.2 0.00 0.18 0.18 90 1017.5
20260508030026 8 190 0.0 3.2 0.00 0.18 0.18 89 1017.3
20260508024514 9 190 0.0 3.2 0.00 0.20 0.18 90 1017.1
20260508023018 8 190 0.0 1.6 0.00 0.30 0.18 90 1016.8
20260508021528 9 190 0.0 0.0 0.00 0.30 0.18 89 1016.8
20260508020026 9 190 0.0 0.0 0.00 0.30 0.18 89 1016.6
20260508014536 9 190 0.0 0.0 0.00 0.33 0.18 88 1016.5
20260508013015 10 190 0.0 0.0 0.00 0.36 0.18 88 1016.3
20260508011522 10 190 0.0 1.6 0.00 0.36 0.18 86 1016.0
20260508010040 10 190 0.0 3.2 0.00 0.38 0.18 85 1015.8
20260508004531 11 190 0.0 3.2 0.00 0.41 0.18 84 1015.7
20260508003028 11 190 1.6 3.2 0.00 0.48 0.18 82 1015.5
20260508001520 12 188 0.0 3.2 0.00 0.61 0.18 80 1015.5
20260508000025 12 153 1.6 6.4 0.00 0.61 0.18 77 1015.4
20260507234508 13 225 3.2 8.0 0.00 0.61 0.18 73 1015.5
20260507233012 13 200 3.2 8.0 0.00 0.61 0.18 71 1015.5
20260507231517 14 196 1.6 9.7 0.00 0.61 0.18 71 1015.5
20260507230025 14 194 4.8 8.0 0.00 0.64 0.18 70 1015.5
20260507224511 15 184 1.6 8.0 0.00 0.64 0.18 67 1015.7
20260507223010 15 300 1.6 11.3 0.00 0.64 0.18 67 1015.4
20260507221518 15 275 1.6 4.8 0.00 0.64 0.18 67 1015.2
20260507220021 13 200 1.6 6.4 0.00 0.64 0.18 68 1015.2
20260507214525 13 192 3.2 6.4 0.00 0.64 0.18 71 1015.0
20260507213007 14 257 3.2 8.0 0.00 0.64 0.18 66 1014.7
20260507211520 13 259 3.2 6.4 0.00 0.64 0.18 69 1014.7
20260507210019 13 340 1.6 4.8 0.00 0.64 0.18 70 1014.7
20260507204524 13 134 1.6 6.4 0.00 0.64 0.18 71 1014.6
20260507203033 13 200 1.6 4.8 0.00 0.64 0.18 74 1014.7
20260507201511 12 300 3.2 6.4 0.00 0.64 0.18 74 1015.0
20260507200016 12 343 0.0 8.0 0.00 0.64 0.18 76 1015.0